When you browse on this site, cookies collect data to enhance your experience and personalize the content and advertising you see.
Visit our Privacy Policy to learn more. By continuing to use the site, you agree to this use of cookies and data.
  • In United Kingdom
  • List of Countries
  • For 7 days
  • Water Temperature
  • Satellite Maps
  • Weather Map
  • Weather Widgets
  • user-avatar
    Login

    Hourly Weather Asunción

    Today, 20 July, Saturday

    Time Temperature Precipitation Wind Pressure Humidity
    00:00 +17°C° 0 mm 2 mps 756 mmHg 96%
    01:00 +17°C° 0 mm 3 mps 756 mmHg 95%
    02:00 +17°C° 0 mm 3 mps 755 mmHg 95%
    03:00 +17°C° 0 mm 2 mps 755 mmHg 94%
    04:00 +16°C° 0 mm 2 mps 755 mmHg 94%
    05:00 +16°C° 0 mm 2 mps 755 mmHg 94%
    06:00 +17°C° 0 mm 2 mps 755 mmHg 88%
    07:00 +18°C° 0 mm 3 mps 755 mmHg 83%
    08:00 +19°C° 0 mm 3 mps 756 mmHg 78%
    09:00 +21°C° 0 mm 4 mps 755 mmHg 73%
    10:00 +23°C° 0 mm 4 mps 755 mmHg 69%
    11:00 +25°C° 0 mm 4 mps 755 mmHg 65%
    12:00 +26°C° 0 mm 4 mps 754 mmHg 62%
    13:00 +28°C° 0 mm 4 mps 753 mmHg 60%
    14:00 +29°C° 0 mm 4 mps 752 mmHg 58%
    15:00 +28°C° 0 mm 4 mps 752 mmHg 63%
    16:00 +27°C° 0 mm 3 mps 752 mmHg 67%
    17:00 +26°C° 0 mm 3 mps 751 mmHg 71%
    18:00 +26°C° 0 mm 3 mps 752 mmHg 70%
    19:00 +26°C° 0 mm 4 mps 752 mmHg 68%
    20:00 +25°C° 0 mm 5 mps 752 mmHg 67%
    21:00 +25°C° 0 mm 5 mps 752 mmHg 66%
    22:00 +25°C° 0 mm 5 mps 752 mmHg 66%
    23:00 +23°C° 0 mm 5 mps 752 mmHg 65%

    Tomorrow, 21 July, Sunday

    Time Temperature Precipitation Wind Pressure Humidity
    00:00 +23°C° 0 mm 5 mps 751 mmHg 65%
    01:00 +23°C° 0 mm 5 mps 751 mmHg 64%
    02:00 +23°C° 0 mm 5 mps 751 mmHg 64%
    03:00 +23°C° 0 mm 5 mps 751 mmHg 62%
    04:00 +22°C° 0 mm 5 mps 750 mmHg 60%
    05:00 +22°C° 0 mm 5 mps 750 mmHg 58%
    06:00 +23°C° 0 mm 6 mps 750 mmHg 57%
    07:00 +23°C° 0 mm 6 mps 750 mmHg 57%
    08:00 +23°C° 0 mm 6 mps 751 mmHg 56%
    09:00 +26°C° 0 mm 7 mps 750 mmHg 52%
    10:00 +28°C° 0 mm 7 mps 750 mmHg 47%
    11:00 +31°C° 0 mm 8 mps 750 mmHg 42%
    12:00 +32°C° 0 mm 8 mps 749 mmHg 41%
    13:00 +32°C° 0 mm 7 mps 748 mmHg 40%
    14:00 +33°C° 0 mm 7 mps 747 mmHg 39%
    15:00 +32°C° 0 mm 6 mps 747 mmHg 43%
    16:00 +30°C° 0 mm 5 mps 747 mmHg 47%
    17:00 +28°C° 0 mm 4 mps 747 mmHg 51%
    18:00 +28°C° 0 mm 5 mps 747 mmHg 49%
    19:00 +27°C° 0 mm 5 mps 748 mmHg 47%
    20:00 +27°C° 0 mm 5 mps 748 mmHg 46%
    21:00 +27°C° 0 mm 5 mps 748 mmHg 46%
    22:00 +27°C° 0 mm 5 mps 748 mmHg 45%
    23:00 +26°C° 0 mm 6 mps 748 mmHg 45%

    Day after tomorrow, 22 July, Monday

    Time Temperature Precipitation Wind Pressure Humidity
    00:00 +26°C° 0 mm 6 mps 748 mmHg 44%
    01:00 +26°C° 0 mm 5 mps 748 mmHg 43%
    02:00 +26°C° 0 mm 5 mps 748 mmHg 42%
    03:00 +26°C° 0 mm 5 mps 748 mmHg 43%
    04:00 +25°C° 0 mm 5 mps 749 mmHg 43%
    05:00 +25°C° 0 mm 5 mps 749 mmHg 43%
    06:00 +25°C° 0 mm 5 mps 749 mmHg 45%
    07:00 +25°C° 0 mm 5 mps 750 mmHg 47%
    08:00 +25°C° 0 mm 5 mps 751 mmHg 50%
    09:00 +27°C° 0 mm 5 mps 751 mmHg 46%
    10:00 +29°C° 0 mm 6 mps 751 mmHg 42%
    11:00 +33°C° 0 mm 7 mps 751 mmHg 38%
    12:00 +33°C° 0 mm 6 mps 750 mmHg 39%
    13:00 +33°C° 0 mm 5 mps 750 mmHg 39%
    14:00 +34°C° 0 mm 5 mps 749 mmHg 40%
    15:00 +33°C° 0 mm 4 mps 749 mmHg 42%
    16:00 +32°C° 0 mm 4 mps 749 mmHg 44%
    17:00 +29°C° 0 mm 3 mps 749 mmHg 46%
    18:00 +29°C° 0 mm 3 mps 750 mmHg 49%
    19:00 +29°C° 0 mm 3 mps 750 mmHg 51%
    20:00 +28°C° 0 mm 3 mps 751 mmHg 53%
    21:00 +26°C° 0.1 mm 3 mps 751 mmHg 62%
    22:00 +25°C° 0.1 mm 3 mps 751 mmHg 71%
    23:00 +23°C° 0.1 mm 2 mps 752 mmHg 81%

    23 July, Tuesday

    Time Temperature Precipitation Wind Pressure Humidity
    00:00 +21°C° 0.3 mm 3 mps 752 mmHg 85%
    01:00 +20°C° 0.3 mm 3 mps 752 mmHg 89%
    02:00 +19°C° 0.3 mm 3 mps 753 mmHg 93%
    03:00 +19°C° 0.1 mm 3 mps 753 mmHg 93%
    04:00 +19°C° 0.1 mm 2 mps 753 mmHg 93%
    05:00 +18°C° 0.1 mm 2 mps 753 mmHg 93%
    06:00 +18°C° 0 mm 2 mps 754 mmHg 93%
    07:00 +18°C° 0 mm 2 mps 755 mmHg 93%
    08:00 +18°C° 0 mm 2 mps 755 mmHg 92%
    09:00 +18°C° 0 mm 2 mps 756 mmHg 91%
    10:00 +18°C° 0 mm 3 mps 756 mmHg 90%
    11:00 +18°C° 0 mm 3 mps 757 mmHg 89%
    12:00 +18°C° 0 mm 3 mps 757 mmHg 88%
    13:00 +17°C° 0 mm 3 mps 756 mmHg 87%
    14:00 +17°C° 0 mm 3 mps 756 mmHg 86%
    15:00 +17°C° 0 mm 3 mps 757 mmHg 85%
    16:00 +17°C° 0 mm 3 mps 757 mmHg 85%
    17:00 +16°C° 0 mm 3 mps 758 mmHg 85%
    18:00 +16°C° 0 mm 3 mps 758 mmHg 85%
    19:00 +16°C° 0 mm 3 mps 758 mmHg 86%
    20:00 +16°C° 0 mm 3 mps 759 mmHg 87%
    21:00 +14°C° 0.5 mm 3 mps 759 mmHg 89%
    22:00 +15°C° 0.5 mm 2 mps 759 mmHg 92%
    23:00 +14°C° 0.5 mm 2 mps 760 mmHg 94%

    24 July, Wednesday

    Time Temperature Precipitation Wind Pressure Humidity
    00:00 +14°C° 0.5 mm 2 mps 759 mmHg 94%
    01:00 +14°C° 0.5 mm 2 mps 759 mmHg 94%
    02:00 +14°C° 0.5 mm 2 mps 759 mmHg 94%
    03:00 +13°C° 2.5 mm 3 mps 759 mmHg 94%
    04:00 +13°C° 2.5 mm 3 mps 759 mmHg 95%
    05:00 +13°C° 2.5 mm 3 mps 759 mmHg 95%
    06:00 +12°C° 3.7 mm 3 mps 760 mmHg 95%
    07:00 +12°C° 3.7 mm 3 mps 761 mmHg 96%
    08:00 +12°C° 3.7 mm 4 mps 761 mmHg 96%
    09:00 +12°C° 3.2 mm 3 mps 762 mmHg 96%
    10:00 +12°C° 3.2 mm 3 mps 762 mmHg 96%
    11:00 +12°C° 3.2 mm 3 mps 763 mmHg 96%
    12:00 +12°C° 2.1 mm 3 mps 762 mmHg 96%
    13:00 +12°C° 2.1 mm 4 mps 762 mmHg 96%
    14:00 +12°C° 2.1 mm 4 mps 761 mmHg 96%
    15:00 +12°C° 1.9 mm 4 mps 762 mmHg 96%
    16:00 +11°C° 1.9 mm 4 mps 762 mmHg 96%
    17:00 +11°C° 1.9 mm 4 mps 763 mmHg 96%
    18:00 +11°C° 1.8 mm 4 mps 763 mmHg 96%
    19:00 +11°C° 1.8 mm 3 mps 763 mmHg 96%
    20:00 +11°C° 1.8 mm 3 mps 763 mmHg 95%
    21:00 +11°C° 2.4 mm 3 mps 763 mmHg 96%
    22:00 +11°C° 2.4 mm 3 mps 763 mmHg 96%
    23:00 +11°C° 2.4 mm 3 mps 763 mmHg 96%

    25 July, Thursday

    Time Temperature Precipitation Wind Pressure Humidity
    00:00 +11°C° 3.8 mm 3 mps 763 mmHg 97%
    01:00 +10°C° 3.8 mm 3 mps 762 mmHg 97%
    02:00 +10°C° 3.8 mm 3 mps 762 mmHg 97%
    03:00 +10°C° 4.2 mm 3 mps 762 mmHg 97%
    04:00 +10°C° 4.2 mm 3 mps 762 mmHg 97%
    05:00 +10°C° 4.2 mm 2 mps 762 mmHg 97%
    06:00 +10°C° 1.4 mm 2 mps 762 mmHg 97%
    07:00 +10°C° 1.4 mm 2 mps 763 mmHg 97%
    08:00 +10°C° 1.4 mm 2 mps 763 mmHg 96%
    09:00 +10°C° 0.2 mm 2 mps 763 mmHg 96%
    10:00 +10°C° 0.2 mm 2 mps 763 mmHg 95%
    11:00 +10°C° 0.2 mm 2 mps 763 mmHg 94%
    12:00 +10°C° 0.1 mm 2 mps 763 mmHg 94%
    13:00 +10°C° 0.1 mm 2 mps 762 mmHg 93%
    14:00 +12°C° 0.1 mm 2 mps 762 mmHg 93%
    15:00 +12°C° 0 mm 2 mps 762 mmHg 93%
    16:00 +12°C° 0 mm 2 mps 762 mmHg 92%
    17:00 +12°C° 0 mm 2 mps 762 mmHg 92%
    18:00 +12°C° 0 mm 2 mps 762 mmHg 92%
    19:00 +12°C° 0 mm 1 mps 762 mmHg 93%
    20:00 +12°C° 0 mm 1 mps 762 mmHg 93%
    21:00 +12°C° 0 mm 1 mps 762 mmHg 93%
    22:00 +12°C° 0 mm 1 mps 762 mmHg 93%
    23:00 +12°C° 0 mm 1 mps 762 mmHg 93%
    Show more